PTGLD SSPL-SBCH

Flight info

Callsign PTGLD
Flight time 0h 26m
Altitude 5500
Route DCT
Aircraft PA24/M-SDFGIRY/S

Departure

Time 2026-04-18 09:27
Airport Palmeira das Missões Airport (SSPL)

Arrival

Time 2026-04-18 09:53
Airport Serafin Enoss Bertaso Airport (SBCH)
Time Latitude Longitude Altitude Speed Heading
2026-04-18 09:07 -27.90341 -53.33040 2082 ft 0 kts 133°
2026-04-18 09:17 -27.90340 -53.33041 2082 ft 1 kts 131°
2026-04-18 09:17 -27.90339 -53.33043 2078 ft 0 kts 145°
2026-04-18 09:18 -27.90338 -53.33043 2078 ft 0 kts 148°
2026-04-18 09:19 -27.90343 -53.33047 2082 ft 1 kts 309°
2026-04-18 09:19 -27.90328 -53.33053 2085 ft 0 kts 342°
2026-04-18 09:20 -27.90314 -53.33059 2086 ft 0 kts 335°
2026-04-18 09:21 -27.90287 -53.33102 2086 ft 0 kts 299°
2026-04-18 09:22 -27.90287 -53.33103 2086 ft 0 kts 274°
2026-04-18 09:22 -27.90340 -53.33170 2080 ft 24 kts 228°
2026-04-18 09:22 -27.90461 -53.33312 2071 ft 6 kts 212°
2026-04-18 09:22 -27.90522 -53.33372 2064 ft 5 kts 234°
2026-04-18 09:23 -27.90527 -53.33405 2062 ft 6 kts 140°
2026-04-18 09:23 -27.90525 -53.33387 2064 ft 11 kts 42°
2026-04-18 09:23 -27.90507 -53.33368 2066 ft 0 kts 44°
2026-04-18 09:26 -27.90501 -53.33361 2066 ft 15 kts 43°
2026-04-18 09:26 -27.90239 -53.33074 2089 ft 81 kts 43°
2026-04-18 09:26 -27.89805 -53.32576 2261 ft 93 kts 44°
2026-04-18 09:26 -27.89297 -53.32024 2459 ft 107 kts 44°
2026-04-18 09:27 -27.88716 -53.31439 2682 ft 116 kts 41°
2026-04-18 09:27 -27.88094 -53.30873 2946 ft 114 kts 38°
2026-04-18 09:27 -27.87452 -53.30308 3141 ft 119 kts 40°
2026-04-18 09:27 -27.86819 -53.29726 3396 ft 116 kts 40°
2026-04-18 09:28 -27.86194 -53.29142 3577 ft 120 kts 40°
2026-04-18 09:28 -27.85564 -53.28543 3801 ft 118 kts 40°
2026-04-18 09:28 -27.84937 -53.27936 4003 ft 119 kts 40°
2026-04-18 09:28 -27.84312 -53.27325 4229 ft 119 kts 40°
2026-04-18 09:29 -27.83683 -53.26704 4417 ft 121 kts 41°
2026-04-18 09:29 -27.83058 -53.26082 4673 ft 118 kts 40°
2026-04-18 09:29 -27.82437 -53.25457 4863 ft 121 kts 40°
2026-04-18 09:29 -27.81800 -53.24818 5043 ft 125 kts 41°
2026-04-18 09:30 -27.81150 -53.24172 5231 ft 126 kts 41°
2026-04-18 09:30 -27.80483 -53.23514 5377 ft 131 kts 41°
2026-04-18 09:30 -27.79782 -53.22825 5491 ft 138 kts 41°
2026-04-18 09:30 -27.79023 -53.22080 5480 ft 150 kts 41°
2026-04-18 09:31 -27.78210 -53.21287 5478 ft 159 kts 41°
2026-04-18 09:31 -27.77357 -53.20456 5463 ft 164 kts 40°
2026-04-18 09:31 -27.76489 -53.19607 5469 ft 166 kts 40°
2026-04-18 09:31 -27.75609 -53.18753 5469 ft 168 kts 40°
2026-04-18 09:32 -27.74721 -53.17890 5470 ft 169 kts 40°
2026-04-18 09:32 -27.73828 -53.17026 5470 ft 169 kts 40°
2026-04-18 09:32 -27.72934 -53.16157 5469 ft 169 kts 40°
2026-04-18 09:32 -27.72039 -53.15289 5470 ft 170 kts 40°
2026-04-18 09:33 -27.71154 -53.14429 5469 ft 170 kts 40°
2026-04-18 09:33 -27.70259 -53.13560 5470 ft 170 kts 40°
2026-04-18 09:33 -27.69361 -53.12687 5467 ft 170 kts 40°
2026-04-18 09:33 -27.68466 -53.11816 5469 ft 170 kts 40°
2026-04-18 09:34 -27.67564 -53.10943 5467 ft 170 kts 40°
2026-04-18 09:34 -27.66665 -53.10073 5468 ft 170 kts 40°
2026-04-18 09:34 -27.65767 -53.09201 5471 ft 170 kts 40°
2026-04-18 09:34 -27.64871 -53.08331 5468 ft 170 kts 40°
2026-04-18 09:35 -27.63974 -53.07457 5467 ft 170 kts 40°
2026-04-18 09:35 -27.63076 -53.06585 5468 ft 170 kts 40°
2026-04-18 09:35 -27.62190 -53.05723 5469 ft 170 kts 40°
2026-04-18 09:35 -27.61279 -53.04843 5468 ft 170 kts 40°
2026-04-18 09:36 -27.60397 -53.03985 5469 ft 170 kts 40°
2026-04-18 09:36 -27.59502 -53.03116 5469 ft 170 kts 40°
2026-04-18 09:36 -27.58603 -53.02244 5468 ft 170 kts 40°
2026-04-18 09:36 -27.57703 -53.01375 5468 ft 170 kts 40°
2026-04-18 09:37 -27.56805 -53.00498 5468 ft 171 kts 41°
2026-04-18 09:37 -27.55903 -52.99626 5469 ft 171 kts 40°
2026-04-18 09:37 -27.55003 -52.98757 5470 ft 171 kts 40°
2026-04-18 09:37 -27.54100 -52.97884 5470 ft 171 kts 40°
2026-04-18 09:38 -27.53195 -52.97014 5469 ft 171 kts 40°
2026-04-18 09:38 -27.52292 -52.96145 5470 ft 171 kts 41°
2026-04-18 09:38 -27.51398 -52.95264 5468 ft 171 kts 40°
2026-04-18 09:38 -27.50508 -52.94402 5468 ft 170 kts 40°
2026-04-18 09:39 -27.49613 -52.93533 5469 ft 170 kts 40°
2026-04-18 09:39 -27.48714 -52.92659 5467 ft 171 kts 40°
2026-04-18 09:39 -27.47817 -52.91786 5469 ft 171 kts 40°
2026-04-18 09:39 -27.46917 -52.90911 5472 ft 171 kts 40°
2026-04-18 09:40 -27.46014 -52.90038 5471 ft 170 kts 40°
2026-04-18 09:40 -27.45117 -52.89167 5471 ft 171 kts 40°
2026-04-18 09:40 -27.44219 -52.88295 5470 ft 171 kts 40°
2026-04-18 09:40 -27.43320 -52.87420 5469 ft 171 kts 40°
2026-04-18 09:41 -27.42420 -52.86546 5468 ft 171 kts 40°
2026-04-18 09:41 -27.41522 -52.85671 5469 ft 171 kts 40°
2026-04-18 09:41 -27.40622 -52.84797 5466 ft 171 kts 40°
2026-04-18 09:41 -27.39722 -52.83919 5471 ft 171 kts 40°
2026-04-18 09:42 -27.38826 -52.83045 5468 ft 170 kts 40°
2026-04-18 09:42 -27.37930 -52.82172 5470 ft 170 kts 40°
2026-04-18 09:42 -27.37034 -52.81292 5470 ft 170 kts 40°
2026-04-18 09:42 -27.36138 -52.80417 5468 ft 170 kts 40°
2026-04-18 09:43 -27.35253 -52.79552 5470 ft 170 kts 40°
2026-04-18 09:43 -27.34359 -52.78678 5471 ft 170 kts 40°
2026-04-18 09:43 -27.33461 -52.77803 5471 ft 170 kts 40°
2026-04-18 09:43 -27.32567 -52.76925 5470 ft 170 kts 40°
2026-04-18 09:44 -27.31674 -52.76050 5472 ft 170 kts 40°
2026-04-18 09:44 -27.30776 -52.75172 5471 ft 171 kts 40°
2026-04-18 09:44 -27.29884 -52.74295 5471 ft 170 kts 40°
2026-04-18 09:44 -27.28990 -52.73421 5471 ft 168 kts 40°
2026-04-18 09:45 -27.28115 -52.72605 5457 ft 160 kts 31°
2026-04-18 09:45 -27.27125 -52.72095 5451 ft 153 kts 21°
2026-04-18 09:45 -27.26158 -52.71631 5415 ft 151 kts 21°
2026-04-18 09:45 -27.25195 -52.71170 5305 ft 153 kts 21°
2026-04-18 09:46 -27.24219 -52.70708 5247 ft 151 kts 21°
2026-04-18 09:46 -27.23247 -52.70246 5156 ft 152 kts 21°
2026-04-18 09:46 -27.22272 -52.69783 5066 ft 151 kts 21°
2026-04-18 09:46 -27.21308 -52.69327 4986 ft 150 kts 21°
2026-04-18 09:47 -27.20342 -52.68871 4888 ft 151 kts 21°
2026-04-18 09:47 -27.19376 -52.68416 4808 ft 150 kts 21°
2026-04-18 09:47 -27.18417 -52.67964 4710 ft 150 kts 21°
2026-04-18 09:47 -27.17458 -52.67515 4607 ft 147 kts 21°
2026-04-18 09:48 -27.16519 -52.67077 4432 ft 148 kts 21°
2026-04-18 09:48 -27.15553 -52.66744 4181 ft 146 kts 360°
2026-04-18 09:48 -27.14635 -52.67109 3957 ft 140 kts 319°
2026-04-18 09:48 -27.14146 -52.68031 3703 ft 139 kts 283°
2026-04-18 09:49 -27.13953 -52.69051 3549 ft 132 kts 280°
2026-04-18 09:49 -27.13776 -52.70069 3356 ft 130 kts 279°
2026-04-18 09:49 -27.13609 -52.71042 3259 ft 123 kts 279°
2026-04-18 09:49 -27.13457 -52.71919 3277 ft 105 kts 279°
2026-04-18 09:50 -27.13244 -52.72669 3251 ft 99 kts 303°
2026-04-18 09:50 -27.12705 -52.73084 3246 ft 90 kts 344°
2026-04-18 09:50 -27.12127 -52.73026 3214 ft 80 kts 34°
2026-04-18 09:50 -27.11948 -52.72476 3172 ft 80 kts 104°
2026-04-18 09:51 -27.12170 -52.71909 3137 ft 84 kts 118°
2026-04-18 09:51 -27.12442 -52.71292 3100 ft 88 kts 118°
2026-04-18 09:51 -27.12678 -52.70626 2993 ft 94 kts 108°
2026-04-18 09:51 -27.12806 -52.69889 2831 ft 97 kts 98°
2026-04-18 09:52 -27.12867 -52.69400 2773 ft 94 kts 101°
2026-04-18 09:52 -27.12979 -52.68706 2666 ft 87 kts 101°
2026-04-18 09:52 -27.13071 -52.68047 2535 ft 84 kts 99°
2026-04-18 09:52 -27.13165 -52.67397 2370 ft 87 kts 101°
2026-04-18 09:53 -27.13267 -52.66701 2142 ft 89 kts 98°
2026-04-18 09:53 -27.13347 -52.66137 2123 ft 58 kts 100°
2026-04-18 09:53 -27.13384 -52.65958 2123 ft 7 kts 121°
2026-04-18 09:53 -27.13366 -52.65969 2123 ft 8 kts 283°
2026-04-18 09:54 -27.13338 -52.66002 2123 ft 6 kts
2026-04-18 09:54 -27.13291 -52.65992 2123 ft 8 kts 14°
2026-04-18 09:54 -27.13238 -52.65982 2121 ft 7 kts
2026-04-18 09:54 -27.13234 -52.65971 2121 ft 0 kts 192°